{"data":{"norad_id":51715,"epoch":"2026-09-20T03:43:44.242752Z","epoch_age_seconds":78225,"freshness":"FRESH","line1":"1 51715U 22016B   26263.15537318 -.00001146  00000+0 -25168-4 0  9991","line2":"2 51715  53.1589 161.5063 0001023  86.4079 273.7039 15.31695685254117","mean_motion":15.31695685,"eccentricity":0.0001023,"inclination_deg":53.1589,"raan_deg":161.5063,"arg_perigee_deg":86.4079,"mean_anomaly_deg":273.7039,"bstar":-2.5168e-5,"rev_number":25411,"period_min":94.013452809329,"perigee_km":470.05221661383,"apogee_km":471.45349947879,"semimajor_km":6848.8898580463,"source":"CELESTRAK","updated_at":"2026-09-20T09:00:39.596881Z"}}